Location: Unspecified
(0.0000°N, 0.0000°E)
Time: 20:34:30
(UTC+02:00)

HO-68 - Visible Passes

Search period start: 01 September 2014 00:00
Search period end: 11 September 2014 00:00
Orbit: 1193 x 1204 km, 100.2° (Epoch: 01 September)

Date Brightness Start Highest point End Pass type
(mag) Time Alt. Az. Time Alt. Az. Time Alt. Az.
01 Sep ? 23:08:36 13° NNW 23:08:36 13° NNW 23:09:08 10° NNW visible
02 Sep ? 22:51:33 13° N 22:51:33 13° N 22:52:16 10° N visible
03 Sep ? 22:34:31 13° N 22:34:31 13° N 22:35:13 10° N visible
04 Sep ? 22:17:29 12° NNE 22:17:29 12° NNE 22:17:56 10° N visible
